Regional Weather Roundup
Issued by NWS

Home | Current Version | Previous Version | Graphics & Text | Print | Product List | Glossary On
Versions: 1 2 3 4 5 6 7 8 9 10 11 12 13 14 15 16 17 18 19 20 21 22 23 24 25 26 27 28 29 30 31 32 33 34 35 36 37 38 39 40 41 42 43 44 45 46 47 48 49 50
546
ASUS44 KLIX 300405
RWRLA
LOUISIANA WEATHER ROUNDUP
NATIONAL WEATHER SERVICE NEW ORLEANS LA
1100 PM CDT MON SEP 29 2014

NOTE: "FAIR" INDICATES FEW OR NO CLOUDS BELOW 12,000 FEET WITH NO
      SIGNIFICANT WEATHER AND/OR OBSTRUCTIONS TO VISIBILITY.
      SKY/WX - SKY CONDITION AND SIGNIFICANT WEATHER.
      TMP - AIR TEMPERATURE.    DP   - DEWPOINT TEMPERATURE.
      RH  - RELATIVE HUMIDITY.  PRES - PRESSURE.
      HX  - HEAT INDEX.         WCI  - WIND CHILL INDEX.

*  THESE STATIONS ARE NOT NWS OR FAA STATIONS AND ARE NOT UNDER
   NWS QUALITY CONTROL.

LAZ040-048-061>063-065-066-069-300500-
SOUTHEAST LOUISIANA

CITY           SKY/WX    TMP DP  RH WIND       PRES   REMARKS
N.O. AUDUBON     N/A     76  73  90 MISG        N/A
N.O. INTL ARPT PTCLDY    77  71  82 CALM      29.88F
N.O. LAKEFRONT CLEAR     79  73  82 CALM      29.89S
N.O. DOWNTOWN* FAIR      79  70  73 CALM      29.89S
SLIDELL        CLEAR     72  70  93 N3        29.88F
BATON ROUGE    CLEAR     73  71  93 CALM      29.89S
BOOTHVILLE     CLEAR     78  74  87 NE3       29.89R
BELLE CHASSE   PTCLDY    73  69  87 CALM      29.88S
BOGALUSA*        N/A     73  69  88 CALM      29.91S
GALLIANO*      NOT AVBL
NEW ROADS*     FAIR      73  72  97 CALM      29.90S
GONZALES*      FAIR      73  73 100 CALM      29.88F
HAMMOND*       CLEAR     73  70  88 CALM      29.90F
HOUMA*         CLEAR    N/A N/A N/A CALM      29.89R
PORT FOURCHON* CLEAR     79  73  83 NE5       29.91S

$$

LAZ041-044-053-054-300500-
SOUTHWEST LOUISIANA

CITY           SKY/WX    TMP DP  RH WIND       PRES   REMARKS
LAKE CHARLES   CLEAR     76  72  87 NE5       29.88S
LAFAYETTE      CLEAR     75  73  93 CALM      29.89F
PATTERSON      CLEAR     73  73 100 CALM      29.91S
SALT POINT       N/A     78  75  90 CALM      29.88S
NEW IBERIA     CLOUDY    76  73  91 CALM      29.89F
CHENAULT AIRPK CLEAR     76  72  89 NE3       29.89S

$$

LAZ027-028-300500-
CENTRAL LOUISIANA

CITY           SKY/WX    TMP DP  RH WIND       PRES   REMARKS
FORT POLK      CLOUDY    74  71  88 NE3       29.90F
ALEXANDRIA INT PTCLDY    74  71  91 CALM      29.89F
ALEXANDRIA     CLOUDY    74  71  91 CALM      29.90F

$$

LAZ001-002-300500-
NORTHWEST LOUISIANA

CITY           SKY/WX    TMP DP  RH WIND       PRES   REMARKS
SHREVEPORT     MOCLDY    77  66  68 CALM      29.91S
BARKSDALE AFB  MOCLDY    73  65  77 CALM      29.92S
DTN SHREVEPORT PTCLDY    73  65  75 CALM      29.91F

$$

LAZ014-016-300500-
NORTHEAST LOUISIANA

CITY           SKY/WX    TMP DP  RH WIND       PRES   REMARKS
MONROE         CLEAR     68  65  90 CALM      29.93S
TALLULAH       CLEAR     69  67  93 N3        29.92S

$$




USA.gov is the U.S. government's official web portal to all federal, state and local government web resources and services.